[[{"header":{"parameterUnit":"m.s-1","parameterCategory":1,"la1":30.2991,"la2":30.254,"lo1":-89.0895,"lo2":-89.0444,"dy":0.0017,"dx":0.0017,"nx":28,"ny":28,"refTime":"2024-06-06T03:00:00:Z","depth":0,"parameterNumber":2,"parameterNumberName":"U-component_of_WINDS"},"data":[0,0,0,0,0,0,0,0,0,0,0,0,0,0,0,0,0,0,0,0,0,0,0,0,0,0,0,0,0,0,0,0,0,0,0,0,0,0,0,0,0,0,0,0,0,0,0,0,0,0,0,0,0,0,0,0,0,0,0.7352,0.7352,0,0.7351,0.7351,0.7351,0.7303,0.7301,0.73,0.7299,0.7296,0.7297,0.7299,0,0,0,0,0,0,0,0,0,0,0,0,0,0.7312,0.7313,0.7352,0.7352,0.7352,0.7351,0.7351,0.7351,0.7303,0.7301,0.73,0.7298,0.7296,0.7297,0.7299,0,0,0,0,0,0,0,0,0,0,0,0,0,0.7322,0.7314,0.7352,0.7328,0.7326,0.7351,0.7351,0.7351,0.7303,0.7301,0.7299,0.7298,0.7296,0.7297,0.7299,0.7346,0,0,0.7304,0.7304,0,0,0,0,0,0,0,0,0.7322,0.7324,0.7332,0.733,0.7328,0.7325,0.7335,0.7349,0.7304,0.7312,0.7299,0.7297,0.7307,0.7308,0.7312,0.7346,0.7346,0.7304,0.7305,0.7306,0.7306,0,0,0,0,0,0,0,0.7321,0.7323,0.7352,0.7332,0.7329,0.7317,0.7316,0.7338,0.732,0.7311,0.7307,0.7308,0.7306,0.731,0.7311,0.7346,0.7304,0.7305,0.7306,0.7307,0.7418,0.742,0,0,0,0,0,0,0.7324,0.7323,0.7352,0.7352,0.732,0.7319,0.7318,0.7328,0.732,0.7317,0.731,0.7306,0.7308,0.7309,0.7311,0.7366,0.7306,0.7307,0.7308,0.7416,0.7418,0.7421,0,0,0,0,0,0,0.7323,0.7327,0.7352,0.7336,0.7339,0.7322,0.7333,0.7329,0.7333,0.7319,0.7315,0.7317,0.7307,0.7309,0.7338,0.7365,0.7308,0.7309,0.7414,0.7417,0.7419,0.7476,0,0,0,0,0,0,0.7322,0.7327,0.7345,0.7337,0.734,0.7379,0.7334,0.733,0.7336,0.7331,0.7325,0.7322,0.7306,0.7335,0.7339,0.7366,0.7311,0.7411,0.7415,0.7419,0.7471,0.748,0.7488,0,0,0,0,0,0.7321,0.7361,0.7346,0.735,0.7362,0.7381,0.7382,0.7362,0.7338,0.7356,0.7347,0.7322,0.7361,0.7339,0.7343,0.737,0.7409,0.7414,0.7418,0.7468,0.7478,0.7487,0,0,0,0,0,0,0.7372,0.7359,0.7343,0.7382,0.7383,0.7373,0.7395,0.7374,0.7382,0.7377,0.7352,0.7351,0.7384,0.738,0.7355,0.7415,0.7381,0.7386,0.7417,0.7427,0.7435,0.7436,0.7312,0,0,0,0,0,0.7388,0.7405,0.7392,0.7428,0.7429,0.7412,0.7419,0.7404,0.7404,0.7404,0.7396,0.7397,0.7409,0.7418,0.7428,0.747,0.7468,0.7491,0.7499,0.7506,0.7511,0.7533,0.7543,0.7435,0.7435,0.7435,0,0,0.7421,0.7416,0.7428,0.7438,0.7437,0.7454,0.7413,0.7433,0.7445,0.7407,0.7434,0.7428,0.7427,0.7463,0.7478,0.7461,0.754,0.7512,0.7517,0.7519,0.7538,0.7549,0.7558,0.7438,0.7438,0.7437,0,0,0.749,0.7488,0.7517,0.7517,0.7516,0.7504,0.7511,0.7504,0.7499,0.7525,0.7497,0.7511,0.7532,0.7533,0.7536,0.7604,0.7582,0.7608,0.7651,0.7673,0.7681,0.7688,0.7713,0.7722,0.7613,0.7613,0.7613,0,0.7531,0.7557,0.7534,0.7557,0.7561,0.7527,0.7556,0.7557,0.7559,0.7563,0.7543,0.7569,0.7566,0.7601,0.7618,0.7621,0.7628,0.7609,0.7682,0.7689,0.7695,0.7719,0.7728,0.7616,0.7616,0.7615,0.7615,0,0.7607,0.7625,0.7648,0.7652,0.7659,0.7685,0.7666,0.7676,0.766,0.765,0.7677,0.7672,0.7681,0.7687,0.7672,0.772,0.771,0.7686,0.7651,0.7709,0.7731,0.7739,0.7621,0.762,0.7619,0.7618,0,0,0.7709,0.77,0.7709,0.771,0.7705,0.7719,0.7742,0.7751,0.776,0.7762,0.7781,0.78,0.7778,0.7781,0.7765,0.7784,0.7838,0.7758,0.7757,0.7774,0.7892,0.791,0.7921,0.7823,0.7825,0.7826,0.7892,0,0.7776,0.7816,0.7797,0.7839,0.7855,0.7822,0.7843,0.7842,0.7833,0.7845,0.7835,0.7849,0.7819,0.7821,0.7838,0.7828,0.7862,0.7823,0.7841,0.7842,0.7843,0.7932,0.7951,0.8014,0.79,0.7902,0.7903,0,0.786,0.7866,0.791,0.7903,0.7909,0.7927,0.7934,0.7945,0.7944,0.7936,0.794,0.7919,0.7941,0.7906,0.7936,0.791,0.7915,0.7912,0.7914,0.7915,0.7876,0.7936,0.8033,0.8043,0.7916,0.7915,0.7914,0,0.793,0.7949,0.7978,0.798,0.7972,0.7986,0.7983,0.798,0.7986,0.7991,0.7995,0.8002,0.8007,0.8013,0.7994,0.797,0.8027,0.799,0.8021,0.8022,0.8035,0.8035,0.8135,0.8038,0.8038,0.8038,0.8038,0,0.8007,0.8036,0.801,0.8028,0.8058,0.8035,0.8066,0.8059,0.8056,0.8072,0.8044,0.8059,0.8033,0.8046,0.8032,0.8059,0.8061,0.8055,0.8051,0.8058,0.8059,0.8062,0.8057,0.804,0.804,0.8039,0.8039,0,0.8092,0.8075,0.8105,0.8094,0.8093,0.8116,0.8107,0.8122,0.8111,0.8132,0.8135,0.8118,0.8131,0.8113,0.8124,0.8115,0.8152,0.8141,0.8153,0.815,0.8182,0.818,0.8289,0.8302,0.8196,0.8197,0.8198,0,0.8142,0.8163,0.8155,0.8164,0.8163,0.8177,0.8183,0.8161,0.8168,0.8168,0.8184,0.8195,0.8202,0.8225,0.8214,0.8222,0.8211,0.8249,0.8213,0.8219,0.8213,0.8212,0.8214,0.8257,0.8258,0.8259,0.826,0,0.8234,0.8224,0.8235,0.8242,0.8251,0.8255,0.8258,0.8267,0.8243,0.8253,0.8266,0.8272,0.8284,0.8295,0.8301,0.8297,0.8275,0.8271,0.8279,0.8287,0.8293,0.8291,0.8174,0.8269,0.8268,0.8268,0.8267,0.8267,0.8303,0.832,0.8317,0.8329,0.8329,0.8332,0.8346,0.8337,0.8348,0.8356,0.8342,0.8359,0.8356,0.8361,0.836,0.8373,0.8357,0.8368,0.8371,0.8374,0.8379,0.8291,0.8374,0.8374,0.8373,0.8373,0.8373,0,0.8393,0.8389,0.8401,0.8405,0.8415,0.8393,0.8395,0.8404,0.842,0.8419,0.8427,0.8443,0.8453,0.8442,0.8451,0.8463,0.8453,0.8466,0.8466,0.8465,0.8393,0.8386,0.8474,0.8474,0.8474,0.8474,0.8474,0.8474,0.8441,0.8469,0.8459,0.8486,0.8482,0.8499,0.8502,0.8505,0.8504,0.8523,0.8531,0.8524,0.8519,0.8527,0.8536,0.8533,0.8537,0.8554,0.8547,0.848,0.847,0.8461,0.8454,0.8555,0.8556,0.8618,0.8619,0.862]},{"header":{"parameterUnit":"m.s-1","parameterCategory":1,"la1":30.2991,"la2":30.254,"lo1":-89.0895,"lo2":-89.0444,"dy":0.0017,"dx":0.0017,"nx":28,"ny":28,"refTime":"2024-06-06T03:00:00:Z","depth":0,"parameterNumber":3,"parameterNumberName":"V-component_of_WINDS"},"data":[0,0,0,0,0,0,0,0,0,0,0,0,0,0,0,0,0,0,0,0,0,0,0,0,0,0,0,0,0,0,0,0,0,0,0,0,0,0,0,0,0,0,0,0,0,0,0,0,0,0,0,0,0,0,0,0,0,0,2.1586,2.1584,0,2.1434,2.1432,2.1431,2.139,2.1391,2.1392,2.1393,2.1228,2.1223,2.1218,0,0,0,0,0,0,0,0,0,0,0,0,0,2.1829,2.1825,2.1586,2.1584,2.1582,2.1434,2.1432,2.143,2.139,2.1391,2.1392,2.1393,2.123,2.1224,2.1217,0,0,0,0,0,0,0,0,0,0,0,0,0,2.1705,2.1824,2.1586,2.1544,2.1539,2.1435,2.1432,2.143,2.1389,2.1391,2.1392,2.1393,2.1232,2.1224,2.1216,2.114,0,0,2.1192,2.1189,0,0,0,0,0,0,0,0,2.1712,2.1696,2.1552,2.1547,2.1541,2.1433,2.1458,2.1332,2.1389,2.1446,2.1393,2.1394,2.1294,2.1281,2.125,2.1133,2.1125,2.1192,2.1187,2.1184,2.1181,0,0,0,0,0,0,0,2.1721,2.1702,2.1525,2.155,2.1543,2.1529,2.1513,2.1434,2.1364,2.1441,2.1438,2.1421,2.1291,2.1257,2.1245,2.1123,2.1192,2.1185,2.118,2.1177,2.0932,2.093,0,0,0,0,0,0,2.1738,2.171,2.153,2.1521,2.1632,2.1524,2.1506,2.1466,2.1365,2.1351,2.142,2.142,2.127,2.1255,2.124,2.1142,2.1184,2.1176,2.1172,2.0934,2.0932,2.093,0,0,0,0,0,0,2.1743,2.1722,2.1536,2.1614,2.159,2.1518,2.1473,2.1462,2.1428,2.1349,2.1335,2.1399,2.1271,2.1251,2.1165,2.1136,2.1173,2.1166,2.0936,2.0933,2.0931,2.0948,0,0,0,0,0,0,2.175,2.1725,2.1698,2.1614,2.1586,2.1468,2.1472,2.1458,2.1416,2.1414,2.1325,2.1312,2.127,2.1177,2.1157,2.1126,2.1159,2.0938,2.0935,2.0932,2.095,2.0946,2.0943,0,0,0,0,0,2.1759,2.1707,2.1697,2.1675,2.1551,2.1467,2.145,2.1406,2.1414,2.1384,2.1332,2.1315,2.1142,2.1169,2.1146,2.1112,2.094,2.0936,2.0932,2.0951,2.0947,2.0943,0,0,0,0,0,0,2.1786,2.1695,2.1683,2.1603,2.1543,2.146,2.1422,2.1403,2.1337,2.1338,2.1283,2.1263,2.1181,2.1137,2.1168,2.1031,2.104,2.1032,2.1063,2.1058,2.1055,2.1067,2.1153,0,0,0,0,0,2.1783,2.1726,2.1648,2.1584,2.1555,2.1494,2.1455,2.1426,2.1361,2.1334,2.1277,2.1211,2.1142,2.1097,2.1029,2.0943,2.0921,2.0907,2.0904,2.0902,2.0895,2.0843,2.0836,2.0917,2.0917,2.0917,0,0,2.1776,2.1719,2.1686,2.1588,2.1539,2.1477,2.1473,2.1408,2.136,2.1323,2.124,2.1195,2.1118,2.1031,2.099,2.0992,2.0868,2.0897,2.0896,2.089,2.0838,2.0831,2.0824,2.0914,2.0914,2.0915,0,0,2.1731,2.1683,2.1624,2.1575,2.15,2.1459,2.1445,2.1364,2.1334,2.125,2.1221,2.1161,2.1043,2.0989,2.0946,2.0878,2.0857,2.0856,2.0839,2.079,2.0783,2.0777,2.0751,2.0743,2.085,2.085,2.085,0,2.173,2.1639,2.1596,2.1532,2.1489,2.1455,2.1393,2.1345,2.1251,2.122,2.1225,2.1076,2.1022,2.0921,2.0904,2.0871,2.085,2.0867,2.0788,2.0782,2.0776,2.075,2.0741,2.085,2.085,2.085,2.085,0,2.1641,2.1578,2.1538,2.1451,2.1403,2.1341,2.1284,2.124,2.1214,2.1171,2.1084,2.1017,2.0934,2.0908,2.0881,2.0802,2.0806,2.08,2.0808,2.0769,2.0744,2.0734,2.085,2.085,2.085,2.085,0,0,2.161,2.1499,2.1485,2.1444,2.1359,2.1307,2.1241,2.1162,2.1124,2.1059,2.1001,2.0901,2.0895,2.0846,2.0812,2.0769,2.0716,2.0768,2.0765,2.076,2.0622,2.0627,2.0616,2.0702,2.07,2.0699,2.0628,0,2.1553,2.1439,2.1396,2.13,2.1239,2.1205,2.1146,2.1085,2.1043,2.0982,2.0933,2.0863,2.0861,2.0831,2.0787,2.0733,2.0688,2.0737,2.0644,2.0641,2.0665,2.0603,2.0609,2.0545,2.0618,2.0616,2.0615,0,2.1473,2.141,2.1309,2.1229,2.1201,2.1151,2.1074,2.1017,2.0945,2.0917,2.0862,2.0831,2.0756,2.0769,2.0663,2.0698,2.0657,2.0624,2.062,2.061,2.0626,2.059,2.0524,2.0514,2.0599,2.0601,2.0602,0,2.1459,2.1349,2.1273,2.1239,2.1144,2.1109,2.1067,2.0997,2.0952,2.0883,2.0852,2.0775,2.0732,2.0671,2.0619,2.0633,2.0517,2.0526,2.0489,2.049,2.0466,2.0468,2.0392,2.044,2.0441,2.0441,2.0441,0,2.1401,2.134,2.1266,2.122,2.1149,2.1098,2.1028,2.0983,2.0921,2.0862,2.0826,2.0771,2.0706,2.0641,2.0598,2.0516,2.0497,2.047,2.0459,2.0473,2.0476,2.0445,2.0448,2.0438,2.0439,2.0439,2.044,0,2.1374,2.1323,2.1238,2.1155,2.1133,2.1084,2.1011,2.0962,2.0918,2.0844,2.0823,2.0752,2.0673,2.0615,2.0512,2.0484,2.0396,2.0385,2.0421,2.0416,2.0381,2.0385,2.0282,2.0265,2.0326,2.0325,2.0325,0,2.1341,2.1293,2.1205,2.1165,2.1124,2.1059,2.1013,2.096,2.0913,2.0826,2.0787,2.0707,2.064,2.0516,2.0452,2.0373,2.036,2.0329,2.0347,2.0362,2.0358,2.0361,2.0355,2.0326,2.0326,2.0326,2.0325,0,2.1285,2.1262,2.1199,2.1126,2.1073,2.1012,2.095,2.0918,2.0853,2.0801,2.0722,2.067,2.0566,2.0486,2.04,2.0352,2.0326,2.032,2.0307,2.032,2.0343,2.0329,2.0413,2.0323,2.0323,2.0323,2.0323,2.0323,2.1253,2.1209,2.114,2.107,2.1018,2.0961,2.0911,2.0861,2.0795,2.0708,2.0679,2.0597,2.0522,2.0405,2.0356,2.0288,2.0288,2.027,2.0265,2.0261,2.0262,2.0354,2.0272,2.0272,2.0272,2.0272,2.0272,0,2.1195,2.115,2.1086,2.1002,2.0945,2.0929,2.0859,2.0812,2.0741,2.0676,2.0611,2.0518,2.0439,2.0369,2.0286,2.0245,2.0231,2.0225,2.0227,2.0216,2.0267,2.0286,2.0237,2.0237,2.0237,2.0237,2.0237,2.0237,2.1159,2.1083,2.1051,2.0946,2.0899,2.0821,2.0782,2.0727,2.0675,2.0574,2.0509,2.0465,2.0396,2.0308,2.0233,2.0214,2.0184,2.0181,2.0159,2.0208,2.0213,2.0217,2.0234,2.0176,2.0175,2.0114,2.0113,2.0113]}]]